Regional Weather Roundup
Issued by NWS

Home | Current Version | Previous Version | Graphics & Text | Print | Product List | Glossary Off
Versions: 1 2 3 4 5 6 7 8 9 10 11 12 13 14 15 16 17 18 19 20 21 22 23 24 25 26 27 28 29 30 31 32 33 34 35 36 37 38 39 40 41 42 43 44 45 46 47 48 49 50

000
ASUS43 KTOP 041308
RWRKS

WEATHER ROUNDUP FOR KANSAS
NATIONAL WEATHER SERVICE GOODLAND KS
800 AM CDT FRI SEP 04 2015

NOTE:  "FAIR" INDICATES FEW OR NO CLOUDS BELOW 12,000 FEET WITH NO
SIGNIFICANT WEATHER AND/OR OBSTRUCTIONS TO VISIBILITY.

KSZ001>006-013>018-027>032-041>047-041400-
NORTHWEST KANSAS

CITY           SKY/WX    TMP DP  RH WIND       PRES   REMARKS
GOODLAND       CLEAR     63  53  70 W8        29.89R
HAYS           CLEAR     73  57  56 S20G25    29.85S
HILL CITY      CLEAR     72  59  63 VRB3      29.85R
RUSSELL        PTCLDY    75  61  61 S21G29    29.85R
$$

KSZ061>065-074>080-084>089-041400-
SOUTHWEST KANSAS

CITY           SKY/WX    TMP DP  RH WIND       PRES   REMARKS
DODGE CITY     CLEAR     70  59  68 S13       29.90R
ELKHART          N/A     68  53  58 W6          N/A
GARDEN CITY    PTCLDY    67  58  72 S10       29.89R
GREAT BEND     PTCLDY    75  61  60 S20       29.88S
LIBERAL        CLEAR     70  55  60 S8        29.92R
PRATT          CLEAR     72  59  64 MISG      29.94R
$$

KSZ066>073-081>083-090>101-041400-
SOUTHEAST KANSAS

CITY           SKY/WX    TMP DP  RH WIND       PRES   REMARKS
CHANUTE        MOSUNNY   70  68  93 SE7       29.98R
COFFEYVILLE    MOSUNNY   71  68  90 S5        29.97R
HUTCHINSON     SUNNY     75  63  66 S12       29.93R
MEDICINE LODGE   N/A     72  63  73 SE6       29.93R
NEWTON         SUNNY     70  61  73 S8        29.97R
PARSONS        MOSUNNY   72  68  87 CALM      29.99R
WICHITA INTL   MOSUNNY   71  64  78 S10       29.94R
WICHITA JABRA  SUNNY     72  64  76 S7        29.95R
WICHITA MCCONL SUNNY     72  63  72 SE10      29.95R
WINFIELD       SUNNY     72  66  81 SE7       29.97R
$$

KSZ007>012-019>026-033>040-048>060-102>105-041400-
NORTHEAST KANSAS

CITY           SKY/WX    TMP DP  RH WIND       PRES   REMARKS
CONCORDIA      PTSUNNY   75  64  68 SE12      29.90R
EMPORIA        SUNNY     70  68  93 S8        29.96R
LAWRENCE       PTSUNNY   73  68  84 CALM      29.97R
MANHATTAN      SUNNY     76  66  71 S5        29.92R
MARYSVILLE     CLOUDY    73  68  83 S7        29.94R
OLATHE IND     MOSUNNY   73  68  84 S8        29.99R
OLATHE EXE     MOSUNNY   71  68  90 S6        29.98R
SALINA         SUNNY     76  63  64 S12       29.91R
TOPEKA BILLARD MOSUNNY   74  68  81 CALM      29.96R
TOPEKA FORBES  MOSUNNY   73  68  84 S7        29.96R
$$


USA.gov is the U.S. government's official web portal to all federal, state and local government web resources and services.